STARLINK-31944

decayed
NORAD ID: 59872 Int'l Des: 2024-098 Owner: SPXS Country: US Constellation: starlink
LEOCIRCULAR
グループ

STARLINK-31944について

説明を読み込み中...

高度履歴

Altitude vs Time

uPlot chart will show altitude changes over time

軌道要素

1 59872U 24098Q 24227.58138307 .04720577 90518-5 11144-2 0 9999
2 59872 42.9722 269.1600 0002030 243.4942 249.3807 16.28700915 13631
Epoch: Aug 14, 2024 • Age: 9524 hours

現在のステータス

Position data unavailable
打ち上げ日 May 24, 2024
運用期間 1.3 years
落下予定日 Aug 15, 2024
タイプ internet

技術仕様

分類 Payload
質量 730.00 kg
乾燥質量 700.00 kg
総質量 730.00 kg
長さ 0.30 m
直径 4.10 m
スパン 29.00 m
形状 Box + pan
製造者 SPXS
バスタイプ Starlink V2M
フェーズステータス Reentered
所有者/国 SPXS/US

大規模コンステレーション

Loading constellations...